Date,TemperatureHighF,TemperatureAvgF,TemperatureLowF,DewpointHighF,DewpointAvgF,DewpointLowF,HumidityHigh,HumidityAvg,HumidityLow,PressureMaxIn,PressureMinIn,WindSpeedMaxMPH,WindSpeedAvgMPH,GustSpeedMaxMPH,PrecipitationSumIn
2013-1-1,77,73,67,65,61,58,81,68,60,30.22,30.07,9,4,14,0.00
2013-1-2,79,71,62,69,65,59,95,82,67,30.11,30.01,7,2,10,0.00
2013-1-3,79,73,67,71,68,65,95,85,70,30.15,30.05,8,2,11,0.03
2013-1-4,80,72,66,72,68,64,97,90,75,30.24,30.12,6,2,9,0.00
2013-1-5,75,69,66,70,67,65,97,94,80,30.27,30.17,6,2,10,0.19
2013-1-6,80,75,66,73,70,65,98,87,77,30.21,30.08,8,3,11,0.00
2013-1-7,74,71,68,70,68,66,97,93,83,30.18,30.08,6,2,8,0.39
2013-1-8,80,76,72,74,72,70,93,86,79,30.21,30.09,9,5,12,0.20
2013-1-9,80,77,75,73,72,70,93,83,77,30.29,30.17,10,6,13,0.00
2013-1-10,78,76,75,71,68,65,82,75,65,30.32,30.20,10,7,14,0.00
2013-1-11,79,76,74,70,68,67,85,78,73,30.27,30.17,10,6,17,0.00
2013-1-12,78,75,73,70,68,65,87,78,71,30.20,30.11,8,5,13,0.02
2013-1-13,79,76,74,68,67,65,81,74,65,30.14,30.09,8,6,14,0.00
2013-1-14,79,75,72,68,65,62,80,71,64,30.19,30.13,7,4,11,0.00
2013-1-15,77,75,73,69,67,64,83,77,71,30.15,30.06,7,4,9,0.00
2013-1-16,80,75,66,70,68,62,91,79,70,30.12,30.03,7,3,9,0.22
2013-1-17,79,72,68,72,69,66,97,92,78,30.10,30.01,9,2,9,0.31
2013-1-18,70,64,52,61,54,46,80,71,63,30.25,30.16,9,6,15,0.00
2013-1-19,72,68,63,68,64,59,97,87,68,30.23,30.11,6,3,9,0.63
2013-1-20,77,70,63,70,67,63,99,90,73,30.16,30.03,6,2,11,0.11
2013-1-21,79,72,66,71,68,64,97,88,75,30.09,29.98,7,3,14,0.02
2013-1-22,75,68,62,64,60,54,95,75,59,30.23,30.02,12,7,20,0.00
2013-1-23,73,68,61,58,55,52,83,65,52,30.31,30.21,12,6,18,0.00
2013-1-24,73,65,59,56,54,48,85,67,49,30.31,30.21,8,4,11,0.00
2013-1-25,75,67,59,62,56,51,82,69,55,30.31,30.19,7,2,10,0.00
2013-1-26,75,68,60,62,59,53,91,74,57,30.27,30.18,7,3,9,0.00
2013-1-27,76,71,63,65,62,59,88,73,58,30.30,30.21,9,4,14,0.00
2013-1-28,78,75,72,67,65,62,78,71,65,30.33,30.24,9,6,15,0.00
2013-1-29,78,75,73,70,68,65,84,79,74,30.25,30.14,8,5,14,0.00
2013-1-30,78,74,72,69,67,63,88,77,69,30.14,29.99,11,6,16,0.00
2013-1-31,73,66,59,71,59,41,96,78,49,30.20,29.97,10,4,11,0.00
2013-2-1,71,62,53,57,49,40,75,63,52,30.29,30.18,12,6,16,0.00
2013-2-2,72,64,56,55,50,37,78,60,48,30.28,30.14,6,3,11,0.00
2013-2-3,72,63,55,54,50,43,90,64,35,30.19,30.08,10,3,12,0.00
2013-2-4,74,63,50,56,49,39,82,62,36,30.17,30.05,6,2,7,0.00
2013-2-5,77,67,55,64,59,52,91,76,57,30.10,30.02,6,2,9,0.00
2013-2-6,78,70,61,67,63,60,96,79,65,30.12,30.04,6,3,10,0.00
2013-2-7,78,74,70,68,65,63,82,74,65,30.09,29.96,8,4,11,0.00
2013-2-8,82,74,69,71,68,64,94,82,65,30.04,29.92,8,4,12,0.00
2013-2-9,77,70,65,68,64,60,96,82,70,30.19,30.03,8,4,14,0.00
2013-2-10,74,72,70,64,62,58,80,72,64,30.27,30.16,11,7,18,0.00
2013-2-11,77,73,71,67,64,62,79,73,68,30.24,30.13,9,5,12,0.00
2013-2-12,81,75,70,70,68,65,91,80,68,30.13,29.99,11,5,17,0.00
2013-2-13,81,75,70,73,71,67,95,86,77,30.02,29.91,12,5,18,0.00
2013-2-14,77,70,63,73,68,62,96,92,83,30.02,29.87,13,4,18,0.61
2013-2-15,72,66,63,68,65,62,98,95,83,30.03,29.96,7,3,11,0.75
2013-2-16,72,65,55,63,57,45,97,78,47,30.10,29.90,13,6,21,0.00
2013-2-17,57,51,44,45,29,17,73,46,24,30.33,30.09,12,7,17,0.00
2013-2-18,68,59,46,58,46,34,72,61,49,30.34,30.23,9,6,14,0.00
2013-2-19,76,72,67,67,62,54,91,71,60,30.22,30.10,9,5,16,0.00
2013-2-20,76,70,64,68,65,59,96,84,60,30.13,30.03,8,3,12,0.00
2013-2-21,79,75,71,69,67,64,87,77,68,30.11,30.01,6,4,10,0.00
2013-2-22,80,76,73,72,70,67,88,82,76,30.12,30.03,9,6,14,0.00
2013-2-23,80,76,73,73,71,69,92,84,76,30.05,29.94,11,7,0,0.00
2013-2-24,84,76,71,75,72,69,98,87,68,30.01,29.92,8,3,0,0.00
2013-2-25,81,75,70,74,71,67,95,87,76,29.93,29.83,11,4,18,0.00
2013-2-26,82,78,75,74,72,71,90,82,71,29.91,29.82,12,7,18,0.00
2013-2-27,77,70,64,73,66,63,97,88,67,29.98,29.88,6,3,8,0.20
2013-2-28,69,64,59,64,54,47,97,73,46,30.02,29.92,8,3,11,0.00
2013-3-1,64,62,58,57,52,47,83,71,58,30.01,29.92,7,4,10,0.00
2013-3-2,64,57,51,50,42,36,76,59,44,30.06,29.97,14,6,24,0.00
2013-3-3,60,54,49,47,43,40,88,67,49,30.17,29.98,10,5,16,0.01
2013-3-4,63,53,42,44,38,33,77,58,35,30.24,30.14,9,4,17,0.00
2013-3-5,73,63,50,59,53,44,90,72,56,30.20,30.11,7,3,9,0.00
2013-3-6,76,65,53,64,52,27,94,67,25,30.11,29.97,12,6,19,0.00
2013-3-7,68,58,47,55,45,35,88,63,43,30.20,30.08,8,4,9,0.00
2013-3-8,72,63,54,54,52,46,89,68,40,30.22,30.13,8,4,9,0.00
2013-3-9,73,65,56,58,54,50,86,68,56,30.21,30.12,10,5,12,0.00
2013-3-10,74,70,67,62,56,54,76,63,54,30.18,30.09,9,6,13,0.00
2013-3-11,73,70,69,62,60,58,76,70,63,30.12,30.02,10,6,18,0.00
2013-3-12,78,74,70,71,66,62,86,78,68,30.02,29.92,11,7,8,0.00
2013-3-13,74,66,57,66,56,46,92,74,44,30.14,29.99,12,6,18,0.00
2013-3-14,69,62,54,53,48,39,85,63,35,30.22,30.10,13,8,18,0.00
2013-3-15,70,62,53,54,50,44,79,65,49,30.27,30.17,9,4,13,0.00
2013-3-16,73,65,54,58,54,52,94,70,50,30.22,30.11,7,3,10,0.00
2013-3-17,75,69,60,62,59,54,85,71,59,30.17,30.05,8,3,12,0.00
2013-3-18,78,73,67,70,66,62,95,80,71,30.10,29.98,12,5,14,0.06
2013-3-19,78,72,68,70,68,66,96,87,67,30.03,29.82,10,3,11,0.01
2013-3-20,79,72,64,71,66,59,98,84,57,29.99,29.83,11,3,13,0.01
2013-3-21,72,66,60,61,55,48,92,68,44,29.96,29.84,9,4,10,0.00
2013-3-22,75,66,56,70,58,52,89,78,59,30.03,29.92,8,3,12,0.00
2013-3-23,82,77,72,75,73,70,95,88,72,30.01,29.83,13,5,18,0.05
2013-3-24,88,80,73,74,72,68,96,79,57,29.91,29.70,14,7,20,0.02
2013-3-25,77,73,65,73,60,42,95,67,34,30.01,29.76,10,5,15,0.01
2013-3-26,65,60,52,44,38,30,66,45,28,30.23,30.00,12,8,17,0.00
2013-3-27,65,56,45,48,42,35,73,61,44,30.27,30.18,9,5,16,0.00
2013-3-28,69,61,51,51,45,32,74,57,28,30.28,30.19,8,4,12,0.00
2013-3-29,73,65,56,55,50,43,70,58,46,30.31,30.23,10,5,16,0.00
2013-3-30,73,69,64,56,53,50,66,57,46,30.29,30.18,7,4,10,0.00
2013-3-31,78,73,68,68,62,55,81,70,61,30.21,30.07,9,5,12,0.00
2013-4-1,84,75,70,72,68,63,89,79,53,30.07,29.96,13,5,19,0.13
2013-4-2,79,72,66,68,66,64,97,83,66,30.10,30.00,7,4,12,0.00
2013-4-3,80,76,73,71,69,67,85,79,70,30.08,30.01,9,5,12,0.00
2013-4-4,81,75,68,74,70,66,97,86,76,30.07,29.92,12,6,17,1.10
2013-4-5,73,68,65,72,66,64,97,93,81,30.00,29.84,9,4,11,0.81
2013-4-6,76,68,59,67,62,57,97,80,63,30.10,29.94,10,6,20,0.00
2013-4-7,77,73,71,65,64,62,80,72,65,30.16,30.04,9,6,13,0.00
2013-4-8,78,74,64,65,62,59,85,68,57,30.15,30.06,7,4,12,0.00
2013-4-9,79,76,73,69,67,65,79,75,68,30.17,30.06,10,6,16,0.00
2013-4-10,81,77,74,73,70,66,86,80,76,30.12,30.01,10,6,12,0.00
2013-4-11,81,78,75,74,72,70,89,84,76,30.04,29.92,9,7,16,0.02
2013-4-12,84,79,76,77,75,74,95,88,78,29.97,29.89,13,7,17,0.18
2013-4-13,82,77,74,76,74,71,96,89,77,29.99,29.89,9,3,14,0.36
2013-4-14,83,79,75,76,75,72,96,87,76,29.99,29.91,11,5,14,0.01
2013-4-15,85,77,69,78,73,68,97,89,73,30.09,29.93,10,3,14,1.31
2013-4-16,83,77,71,77,73,70,99,88,76,30.13,30.04,10,4,14,0.01
2013-4-17,81,78,75,72,70,68,85,77,66,30.12,30.04,11,6,13,0.00
2013-4-18,84,80,76,74,72,69,85,77,67,30.08,29.99,9,5,16,0.00
2013-4-19,85,81,78,75,73,71,86,78,69,30.07,29.98,12,7,20,0.00
2013-4-20,85,77,72,77,74,70,99,89,71,30.09,29.97,12,4,16,1.68
2013-4-21,82,77,72,74,72,69,96,86,74,30.11,30.00,8,4,12,0.00
2013-4-22,82,74,69,73,70,68,99,89,67,30.06,29.94,11,3,14,1.64
2013-4-23,81,74,67,70,67,62,99,79,62,30.10,29.97,13,7,16,0.01
2013-4-24,81,76,73,67,64,61,74,66,59,30.15,30.05,8,5,11,0.00
2013-4-25,78,76,72,64,63,61,72,65,58,30.22,30.09,8,5,10,0.00
2013-4-26,79,75,71,67,65,62,75,70,64,30.24,30.13,10,5,14,0.00
2013-4-27,80,76,73,68,65,62,78,68,61,30.22,30.10,9,6,16,0.00
2013-4-28,80,76,74,66,65,63,77,67,57,30.13,30.01,9,6,15,0.00
2013-4-29,81,77,75,72,69,64,84,75,66,30.05,29.95,8,5,14,0.02
2013-4-30,80,76,70,74,71,68,96,85,76,30.01,29.94,7,3,10,0.22
2013-5-1,83,76,70,74,71,68,95,86,72,30.02,29.94,7,2,11,0.62
2013-5-2,77,73,66,73,70,64,99,91,80,29.96,29.81,16,5,18,5.51
2013-5-3,84,74,68,72,69,67,99,86,60,29.83,29.70,8,3,12,0.11
2013-5-4,86,76,68,70,68,66,98,78,53,29.82,29.70,8,4,15,0.01
2013-5-5,79,73,68,67,62,53,94,71,41,29.95,29.77,8,5,13,0.00
2013-5-6,82,72,60,64,61,56,94,69,47,30.03,29.93,7,3,8,0.00
2013-5-7,83,72,63,68,62,58,89,71,46,30.08,29.99,8,4,12,0.00
2013-5-8,82,73,62,67,63,57,93,71,45,30.15,30.06,6,2,9,0.00
2013-5-9,84,76,66,74,68,60,85,76,62,30.16,30.08,7,3,9,0.00
2013-5-10,86,80,72,75,73,70,92,79,60,30.15,30.04,8,4,11,0.03
2013-5-11,85,79,74,76,74,69,97,84,70,30.08,30.00,11,5,14,0.00
2013-5-12,86,78,70,75,72,69,99,84,63,30.08,29.97,11,4,16,0.97
2013-5-13,85,77,70,73,70,68,100,82,62,30.10,30.00,8,3,12,0.01
2013-5-14,79,76,74,68,62,57,75,62,50,30.19,30.07,10,7,17,0.00
2013-5-15,80,76,73,66,61,57,67,61,50,30.21,30.11,8,6,14,0.00
2013-5-16,81,77,72,66,62,57,70,62,52,30.13,30.06,7,4,11,0.00
2013-5-17,84,78,72,74,70,64,96,77,65,30.11,30.02,10,3,15,0.52
2013-5-18,84,79,74,76,73,70,96,81,71,30.12,30.05,8,4,11,0.11
2013-5-19,83,79,77,72,70,68,80,74,63,30.12,30.02,7,4,10,0.00
2013-5-20,81,77,70,75,72,69,98,87,79,30.09,29.99,8,3,9,1.40
2013-5-21,81,76,71,74,72,69,99,86,75,30.06,29.95,8,4,16,0.31
2013-5-22,83,76,72,75,72,69,95,88,75,29.99,29.91,7,3,12,0.68
2013-5-23,90,81,74,77,74,66,96,80,47,30.02,29.92,7,4,12,0.00
2013-5-24,87,81,76,77,75,73,97,82,66,30.07,29.96,8,3,13,0.00
2013-5-25,83,80,75,75,69,65,87,70,57,30.17,30.05,12,6,18,0.00
2013-5-26,83,79,75,69,66,62,80,66,60,30.19,30.12,10,6,13,0.00
2013-5-27,83,79,74,74,71,65,93,77,67,30.17,30.08,10,7,17,0.14
2013-5-28,81,78,73,74,73,70,93,84,77,30.13,30.05,11,7,17,0.22
2013-5-29,80,75,71,74,72,68,98,89,75,30.11,30.04,13,7,20,2.52
2013-5-30,82,78,73,75,73,71,96,85,77,30.08,30.02,14,9,18,0.18
2013-5-31,81,78,75,76,74,72,96,88,81,30.07,30.01,11,6,16,0.78
2013-6-1,83,77,73,77,74,72,97,92,80,30.04,29.97,7,3,10,1.21
2013-6-2,87,78,71,78,74,71,99,86,68,30.02,29.94,9,2,11,0.00
2013-6-3,86,79,73,77,74,71,96,87,64,30.05,29.93,9,2,12,0.32
2013-6-4,84,78,72,77,74,71,98,89,70,30.06,29.97,6,2,8,0.17
2013-6-5,83,81,79,77,76,74,89,86,81,30.03,29.91,8,4,12,0.00
2013-6-6,86,80,75,80,76,72,99,89,80,29.92,29.80,14,8,22,0.84
2013-6-7,89,78,73,78,74,72,97,89,67,30.01,29.86,9,4,15,0.73
2013-6-8,86,80,74,80,76,73,97,89,76,30.12,29.98,8,3,11,0.16
2013-6-9,86,82,80,77,76,74,90,80,72,30.13,30.05,9,6,14,0.00
2013-6-10,86,83,80,78,76,75,88,82,74,30.11,30.02,8,5,12,0.00
2013-6-11,87,82,78,78,77,74,94,85,68,30.11,30.02,7,4,9,0.20
2013-6-12,87,81,77,78,76,75,96,87,72,30.09,30.03,5,2,9,0.00
2013-6-13,89,80,75,77,75,71,98,84,56,30.07,29.96,7,2,10,0.01
2013-6-14,91,80,74,77,74,72,95,82,56,29.99,29.89,9,3,16,0.17
2013-6-15,88,81,75,77,75,74,97,83,65,30.07,29.94,6,2,10,0.01
2013-6-16,88,82,76,79,76,74,95,82,70,30.11,30.03,6,3,11,0.05
2013-6-17,88,84,80,78,76,74,84,78,70,30.10,30.02,7,4,11,0.00
2013-6-18,88,84,81,78,76,75,86,78,68,30.09,30.00,7,4,11,0.00
2013-6-19,88,84,79,78,76,75,91,79,67,30.06,30.00,8,4,12,0.00
2013-6-20,88,81,70,79,75,68,98,83,68,30.10,30.03,11,3,11,2.01
2013-6-21,88,84,81,77,75,73,85,75,66,30.13,30.04,7,4,11,0.00
2013-6-22,87,83,80,76,75,73,84,76,68,30.12,30.05,8,4,13,0.00
2013-6-23,87,83,79,78,75,72,85,76,65,30.14,30.06,9,5,14,0.04
2013-6-24,87,83,77,76,75,72,86,76,69,30.18,30.09,8,6,15,0.01
2013-6-25,87,83,80,78,76,74,86,80,70,30.14,30.05,8,5,11,0.00
2013-6-26,88,83,80,77,76,74,86,78,66,30.10,30.02,7,4,11,0.06
2013-6-27,88,82,78,78,76,72,92,81,69,30.07,29.97,6,2,9,0.05
2013-6-28,87,80,73,78,75,71,96,84,69,30.01,29.88,9,3,14,1.16
2013-6-29,88,80,74,78,75,71,97,85,69,29.94,29.84,9,2,18,0.04
2013-6-30,87,82,78,78,75,74,91,82,66,29.96,29.87,13,6,20,0.03
2013-7-1,87,82,75,78,76,72,94,82,74,30.05,29.93,12,5,15,0.25
2013-7-2,88,83,76,80,77,74,96,83,72,30.13,29.99,8,4,14,0.01
2013-7-3,87,82,77,78,76,73,91,82,73,30.14,30.06,9,5,15,0.14
2013-7-4,88,84,76,78,76,72,91,78,70,30.17,30.08,9,6,13,0.00
2013-7-5,85,82,77,78,76,73,93,83,72,30.15,30.07,10,6,14,0.61
2013-7-6,86,82,79,77,75,73,87,79,68,30.13,30.05,9,6,12,0.13
2013-7-7,86,83,80,78,76,74,84,78,72,30.11,30.04,9,6,13,0.00
2013-7-8,87,83,80,76,74,72,85,75,67,30.16,30.09,7,4,11,0.03
2013-7-9,85,81,76,75,73,71,90,78,64,30.16,30.06,10,3,12,0.09
2013-7-10,84,78,71,77,74,69,97,87,78,30.10,30.02,7,2,12,2.40
2013-7-11,87,83,78,78,76,73,90,80,69,30.06,29.96,8,3,11,0.00
2013-7-12,89,81,76,77,74,70,95,82,64,29.99,29.92,8,2,11,0.00
2013-7-13,86,76,72,76,73,70,97,91,70,30.05,29.93,6,2,12,1.97
2013-7-14,87,78,72,76,73,70,98,85,63,30.11,30.00,8,4,14,0.66
2013-7-15,86,79,73,77,74,71,96,83,69,30.11,30.03,7,3,14,0.09
2013-7-16,82,78,72,75,72,69,96,84,72,30.17,30.06,13,6,19,0.29
2013-7-17,80,77,72,76,73,71,97,89,79,30.17,30.06,9,4,10,1.58
2013-7-18,82,76,72,78,74,70,97,92,84,30.14,30.07,9,2,11,0.78
2013-7-19,86,81,73,78,76,72,98,86,75,30.14,30.06,6,3,0,0.00
2013-7-20,83,81,77,78,76,72,90,87,80,30.12,30.06,7,2,12,0.00
2013-7-21,88,81,76,80,77,73,94,86,74,30.17,30.07,6,2,8,0.00
2013-7-22,88,83,79,78,76,73,90,80,69,30.16,30.08,9,4,12,0.00
2013-7-23,88,83,76,79,76,74,95,81,66,30.12,29.99,10,4,15,0.00
2013-7-24,93,84,77,78,74,69,92,74,51,30.04,29.92,7,3,10,0.00
2013-7-25,92,84,75,76,74,72,93,74,57,30.03,29.93,7,3,12,0.00
2013-7-26,92,82,77,77,75,73,94,82,57,30.04,29.95,7,3,12,0.20
2013-7-27,88,80,76,80,76,73,96,89,70,30.02,29.95,8,2,12,0.16
2013-7-28,86,81,76,78,76,72,94,86,76,30.09,29.97,5,2,10,0.30
2013-7-29,88,82,76,79,77,73,94,84,72,30.15,30.03,8,3,11,0.18
2013-7-30,88,83,73,80,77,70,96,83,73,30.18,30.09,9,4,11,0.32
2013-7-31,88,84,82,78,76,73,86,77,69,30.13,30.02,8,4,11,0.00
2013-8-1,87,83,80,77,75,73,83,76,66,30.07,29.96,8,5,13,0.00
2013-8-2,88,81,72,78,75,69,97,83,65,30.07,29.93,7,2,12,0.52
2013-8-3,86,79,72,79,76,69,98,91,74,30.17,30.04,11,2,13,0.22
2013-8-12,-200,0,200,-100,-100,-100,0,0,100,30.10,30.03,7,5,12,0.13
2013-8-13,-200,0,200,-100,-100,-100,0,0,100,30.06,29.97,6,3,11,0.00
2013-8-14,-200,0,200,-100,-100,-100,0,0,100,30.04,29.95,6,4,10,0.00
2013-8-15,-200,0,200,-100,-100,-100,0,0,100,30.08,29.98,8,3,9,0.92
2013-8-16,-200,0,200,-100,-100,-100,0,0,100,30.07,30.00,6,2,8,0.00
2013-8-17,-200,0,200,-100,-100,-100,0,0,100,30.10,30.02,7,4,11,0.00
2013-8-18,-200,0,200,-100,-100,-100,0,0,100,30.10,30.01,10,5,12,0.12
2013-8-19,-200,0,200,-100,-100,-100,0,0,100,30.09,29.98,8,5,15,0.00
2013-8-20,-200,0,200,-100,-100,-100,0,0,100,30.08,30.00,9,5,12,0.00
2013-8-21,-200,0,200,-100,-100,-100,0,0,100,30.09,30.01,10,6,15,0.05
2013-8-22,-200,0,200,-100,-100,-100,0,0,100,30.08,29.97,8,5,15,0.07
2013-8-23,-200,0,200,-100,-100,-100,0,0,100,30.03,29.95,8,3,11,0.00
2013-8-24,-200,0,200,-100,-100,-100,0,0,100,30.14,29.99,7,3,12,0.21
2013-8-25,-200,0,200,-100,-100,-100,0,0,100,30.17,30.04,7,3,10,0.08
2013-8-26,-200,0,200,-100,-100,-100,0,0,100,30.14,30.03,8,3,10,0.05
2013-8-27,-200,0,200,-100,-100,-100,0,0,100,30.07,29.99,8,2,9,0.24
2013-8-28,-200,0,200,-100,-100,-100,0,0,100,30.06,29.97,6,3,8,0.12
2013-8-29,-200,0,200,-100,-100,-100,0,0,100,30.04,29.94,6,2,11,0.11
2013-8-30,-200,0,200,-100,-100,-100,0,0,100,30.02,29.92,8,3,10,0.00
2013-8-31,-200,0,200,-100,-100,-100,0,0,100,30.00,29.93,5,2,9,0.06
2013-9-1,-200,0,200,-100,-100,-100,0,0,100,30.02,29.94,6,1,7,0.01
2013-9-2,-200,0,200,-100,-100,-100,0,0,100,30.05,29.96,7,1,11,0.16
2013-9-3,-200,0,200,-100,-100,-100,0,0,100,30.04,29.95,6,2,12,0.01
2013-9-4,-200,0,200,-100,-100,-100,0,0,100,30.08,29.96,5,2,7,0.40
2013-9-5,-200,0,200,-100,-100,-100,0,0,100,30.09,30.01,6,3,9,0.00
2013-9-6,-200,0,200,-100,-100,-100,0,0,100,30.05,29.94,8,4,11,0.00
2013-9-7,-200,0,200,-100,-100,-100,0,0,100,30.00,29.92,11,2,12,0.18
2013-9-8,-200,0,200,-100,-100,-100,0,0,100,29.97,29.87,6,2,7,0.01
2013-9-9,-200,0,200,-100,-100,-100,0,0,100,30.02,29.91,8,4,14,0.00
2013-9-10,-200,0,200,-100,-100,-100,0,0,100,30.06,29.97,10,5,11,0.03
2013-9-11,-200,0,200,-100,-100,-100,0,0,100,30.08,29.98,9,4,13,1.07
2013-9-12,-200,0,200,-100,-100,-100,0,0,100,30.03,29.90,4,2,7,0.01
2013-9-13,-200,0,200,-100,-100,-100,0,0,100,29.92,29.82,5,2,8,0.00
2013-9-14,-200,0,200,-100,-100,-100,0,0,100,29.99,29.84,7,3,11,0.00
2013-9-15,-200,0,200,-100,-100,-100,0,0,100,30.06,29.94,10,4,19,0.20
2013-9-16,-200,0,200,-100,-100,-100,0,0,100,30.06,29.97,9,-18,11,0.51
2013-9-17,-200,0,200,-100,-100,-100,0,0,100,30.05,29.93,0,-999,0,0.00
2013-9-18,-200,0,200,-100,-100,-100,0,0,100,30.03,29.93,0,-999,0,0.00
2013-9-19,88,33,79,75,-32,-100,85,29,68,30.02,29.94,8,-600,13,0.32
2013-9-20,86,82,78,73,70,67,82,67,56,30.01,29.91,9,5,13,0.00
2013-9-21,86,82,79,74,72,70,77,70,63,29.93,29.79,5,3,8,0.00
2013-9-22,91,83,77,77,75,73,92,79,60,29.88,29.77,8,3,16,0.18
2013-9-23,89,80,75,78,76,72,96,87,66,29.99,29.87,12,1,13,0.51
2013-9-24,92,81,75,81,76,71,96,84,57,29.98,29.88,10,3,15,0.06
2013-9-25,89,80,74,79,74,70,89,80,61,29.93,29.82,8,2,11,0.01
2013-9-26,88,80,76,79,76,73,95,87,72,29.88,29.81,12,3,13,0.93
2013-9-27,88,80,75,76,73,68,94,79,54,29.93,29.83,10,4,15,0.00
2013-9-28,86,80,73,75,72,70,94,79,65,29.97,29.88,10,4,15,0.29
2013-9-29,85,82,78,72,70,68,78,67,58,29.98,29.89,7,4,10,0.00
2013-9-30,86,82,77,73,70,68,80,68,57,30.02,29.92,6,3,10,0.00
2013-10-1,86,83,80,74,72,70,76,70,65,30.04,29.97,8,5,19,0.00
2013-10-2,85,82,80,74,73,71,80,73,65,30.06,29.98,9,6,13,0.00
2013-10-3,85,82,80,75,73,71,80,74,67,30.07,29.96,7,4,11,0.00
2013-10-4,86,82,79,73,71,68,78,70,62,30.07,30.00,6,4,11,0.00
2013-10-5,86,81,72,74,71,68,89,72,61,30.05,29.95,8,3,12,0.00
2013-10-6,86,82,77,76,72,70,86,73,61,29.98,29.89,6,2,10,0.09
2013-10-7,90,79,74,76,72,69,90,79,55,29.91,29.83,12,2,16,0.17
2013-10-8,89,81,76,77,74,70,94,81,59,29.95,29.86,5,2,11,0.08
2013-10-9,84,78,72,75,72,69,91,83,72,30.00,29.92,10,4,13,0.00
2013-10-10,85,79,72,74,71,68,92,77,61,30.02,29.95,10,5,14,0.01
2013-10-11,84,79,70,70,68,65,89,69,59,30.03,29.95,9,4,19,0.00
2013-10-12,84,78,68,70,67,65,90,69,55,30.04,29.96,7,3,11,0.00
2013-10-13,84,79,73,70,66,62,88,66,49,30.06,29.98,10,4,15,0.00
2013-10-14,84,78,70,70,68,66,87,71,58,30.03,29.92,7,3,11,0.00
2013-10-15,84,78,71,72,70,68,91,75,64,29.97,29.89,8,3,12,0.00
2013-10-16,84,78,73,72,69,65,87,73,61,29.97,29.90,6,2,11,0.01
2013-10-17,85,80,72,72,71,69,89,74,63,29.98,29.91,6,2,10,0.00
2013-10-18,87,81,72,74,71,69,90,73,64,30.00,29.91,6,3,10,0.00
2013-10-19,87,82,79,75,72,70,79,72,60,29.98,29.89,7,4,10,0.00
2013-10-20,86,82,77,77,75,73,88,79,72,29.98,29.89,6,2,8,0.00
2013-10-21,88,83,79,77,75,73,86,77,66,30.02,29.92,6,3,10,0.02
2013-10-22,89,83,78,77,75,73,89,78,61,29.98,29.85,9,4,14,0.00
2013-10-23,88,80,76,75,72,68,92,77,59,29.97,29.83,10,4,15,0.00
2013-10-24,80,77,73,68,65,61,77,67,57,30.10,29.95,9,5,14,0.00
2013-10-25,82,76,70,66,64,60,79,65,52,30.16,30.07,12,6,15,0.00
2013-10-26,81,78,71,65,62,60,72,59,52,30.16,30.07,8,5,0,0.00
2013-10-27,81,75,67,64,62,59,77,65,54,30.11,30.04,6,4,0,0.00
2013-10-28,83,78,75,67,64,60,67,62,48,30.15,30.06,7,4,11,0.00
2013-10-29,84,80,76,69,67,64,70,65,57,30.19,30.10,10,6,16,0.00
2013-10-30,83,79,77,69,66,64,71,65,56,30.20,30.10,9,7,15,0.00
2013-10-31,84,80,76,72,70,66,81,72,62,30.13,30.01,8,5,13,0.02
2013-11-1,86,81,78,74,72,70,80,74,68,30.02,29.90,8,4,10,0.00
2013-11-2,89,79,72,73,69,62,94,74,43,29.95,29.82,7,2,10,0.00
2013-11-3,80,75,68,65,63,60,83,67,52,30.04,29.90,13,8,17,0.00
2013-11-4,80,77,73,68,64,56,83,64,45,30.09,30.02,15,10,22,0.05
2013-11-5,81,79,77,71,68,64,80,70,63,30.10,30.03,13,10,20,0.00
2013-11-6,82,80,76,70,68,67,75,69,59,30.08,30.01,12,7,16,0.00
2013-11-7,83,76,70,72,69,67,91,79,63,30.03,29.93,8,3,12,0.00
2013-11-8,83,77,72,73,70,67,92,80,63,30.05,29.95,14,7,21,0.39
2013-11-9,79,76,73,73,71,70,95,85,78,30.13,30.02,13,10,23,0.91
2013-11-10,82,79,78,72,70,67,81,74,70,30.13,30.06,10,6,15,0.00
2013-11-11,82,79,77,71,68,65,77,71,66,30.13,30.06,8,6,14,0.00
2013-11-12,82,78,72,70,68,66,85,71,61,30.09,29.98,8,4,11,0.00
2013-11-13,76,72,70,67,63,56,86,72,60,30.22,30.00,16,10,23,0.01
2013-11-14,76,73,70,62,58,53,68,59,52,30.25,30.15,15,9,17,0.00
2013-11-15,81,77,74,69,66,62,75,69,63,30.16,30.04,10,7,17,0.00
2013-11-16,80,78,72,72,69,66,87,74,65,30.11,30.03,8,5,12,0.10
2013-11-17,83,80,78,73,70,68,83,74,65,30.09,30.02,8,5,13,0.00
2013-11-18,84,78,74,73,71,70,89,78,66,30.04,29.94,5,2,9,0.02
2013-11-19,83,75,73,74,71,69,93,86,69,29.96,29.87,7,2,12,0.10
2013-11-20,83,76,70,74,72,68,95,86,70,30.07,29.93,6,2,11,0.09
2013-11-21,78,75,71,75,72,69,96,89,78,30.15,30.05,10,4,15,2.82
2013-11-22,81,78,76,72,70,69,82,77,72,30.17,30.08,10,8,19,0.00
2013-11-23,80,78,74,71,70,68,84,78,71,30.09,29.99,8,5,14,0.00
2013-11-24,80,74,68,70,67,63,93,81,63,30.16,30.00,14,6,20,0.41
2013-11-25,75,73,72,69,65,60,86,74,65,30.22,30.07,14,11,24,0.03
2013-11-26,82,78,72,74,72,68,93,84,76,30.07,29.84,12,8,21,0.07
2013-11-27,78,71,58,75,64,51,95,80,53,30.13,29.81,12,6,15,0.64
2013-11-28,73,63,48,61,53,44,88,71,54,30.26,30.13,11,7,15,0.00
2013-11-29,76,71,62,64,59,55,84,66,56,30.28,30.20,12,7,18,0.00
2013-11-30,75,71,62,69,63,59,92,77,64,30.22,30.12,13,6,22,0.41
2013-12-1,79,71,63,69,66,60,96,86,70,30.12,29.96,8,3,10,1.35
2013-12-2,73,68,62,67,64,60,97,87,67,29.95,29.84,9,3,9,0.09
2013-12-3,78,73,61,66,63,59,93,73,56,30.02,29.92,3,2,6,0.00
2013-12-4,81,74,65,70,66,63,92,77,62,30.11,30.00,7,2,10,0.00
2013-12-5,82,78,74,71,69,66,78,74,68,30.18,30.09,7,4,10,0.00
2013-12-6,82,78,76,70,69,67,80,74,64,30.20,30.10,9,5,17,0.00
2013-12-7,82,77,70,71,69,66,89,77,64,30.23,30.15,8,3,13,0.00
2013-12-8,82,78,71,71,69,66,91,74,63,30.22,30.14,10,5,16,0.05
2013-12-9,82,79,76,71,68,65,79,71,58,30.21,30.12,7,4,11,0.00
2013-12-10,83,78,74,73,71,69,88,78,69,30.18,30.09,7,4,12,0.00
2013-12-11,81,76,71,74,71,69,94,83,71,30.21,30.13,5,2,9,0.01
2013-12-12,78,73,70,70,66,60,94,80,65,30.23,30.14,12,6,17,0.00
2013-12-13,78,74,71,69,63,58,85,70,62,30.21,30.11,10,8,16,0.09
2013-12-14,81,78,74,72,70,68,83,78,70,30.13,30.01,9,6,13,0.01
2013-12-15,84,77,71,74,71,67,91,83,69,30.07,29.94,7,4,13,0.18
2013-12-16,73,68,62,67,61,58,88,78,66,30.17,30.04,8,4,10,0.00
2013-12-17,76,68,60,64,59,57,91,74,59,30.19,30.11,9,4,15,0.00
2013-12-18,75,66,61,59,57,56,89,74,53,30.25,30.15,10,4,13,0.00
2013-12-19,77,71,60,63,59,56,88,68,56,30.25,30.16,9,4,13,0.00
2013-12-20,80,77,74,70,67,62,76,71,65,30.20,30.11,7,5,14,0.00
2013-12-21,81,78,77,72,71,69,83,78,73,30.16,30.08,8,6,15,0.00
2013-12-22,82,79,77,73,72,70,83,79,72,30.17,30.09,8,6,18,0.00
2013-12-23,82,78,72,74,72,68,90,79,73,30.19,30.13,10,5,14,0.00
2013-12-24,82,73,68,72,69,66,95,86,65,30.19,30.09,10,2,12,0.00
2013-12-25,76,73,72,67,65,64,85,77,70,30.18,30.11,12,9,20,0.02
2013-12-26,77,76,75,70,69,69,82,80,77,30.15,30.08,7,5,17,0.00
2013-12-27,79,77,75,71,69,68,81,78,74,30.20,30.10,9,6,14,0.00
2013-12-28,80,77,75,72,70,68,88,81,75,30.18,30.04,10,7,16,0.03
2013-12-29,81,78,75,74,72,71,92,84,77,30.05,29.94,10,6,18,0.00
2013-12-30,78,73,69,72,69,65,95,89,78,30.15,29.99,6,3,10,0.00
2013-12-31,78,73,68,68,64,61,88,75,64,30.24,30.11,13,7,18,0.00
2014-1-1,80,76,74,73,70,64,92,82,71,30.21,30.06,9,5,13,0.30
2014-1-2,85,78,74,72,69,65,87,75,52,30.05,29.88,10,5,14,0.00